Regional Weather Roundup
Issued by NWS Sterling, VA

Home | Current Version | Previous Version | Graphics & Text | Print | Product List | Glossary On
Versions: 1 2 3 4 5 6 7 8 9 10 11 12 13 14 15 16 17 18 19 20 21 22 23 24 25 26 27 28 29 30 31 32 33 34 35 36 37 38 39 40 41 42 43 44 45 46 47 48 49 50
000
ASUS41 KLWX 030511
RWRLWX

REGIONAL WEATHER ROUNDUP
NATIONAL WEATHER SERVICE BALTIMORE MD/WASHINGTON DC
100 AM EDT WED JUN 03 2015

Note: "FAIR" indicates few or no clouds below 12,000 feet
with no significant weather and/or obstructions to visibility.
 TC=TEMPERATURE CELSIUS

 * =Non NWS site. Station does not report precipitation (e.g. rain,
    snow, etc.), thunder, or fog.

DCZ001-MDZ009-015-VAZ040>042-051-053>054-030600-
WASHINGTON METRO

CITY           SKY/WX    TMP DP  RH WIND       PRES   REMARKS
WASHINGTON NAT DRIZZLE   61  57  88 NE12      30.14F
DULLES         DRIZZLE   57  55  93 N7        30.14S FOG
ANDREWS AFB    LGT RAIN  57  57 100 NE7       30.13S FOG
FT BELVOIR     DRIZZLE   59  55  88 VRB2      30.14S
QUANTICO       LGT RAIN  60  57  89 NE14G21   30.14S
COLLEGE PARK*  CLOUDY    57  55  94 N5        30.14F
LEESBURG*      CLOUDY    57  57 100 NE5       30.16S FOG
MANASSAS*        N/A    N/A N/A N/A MISG        N/A
GAITHERSBURG*  CLOUDY    55  52  88 NE3       30.19S

$$

MDZ006>007-011-014-030600-
BALTIMORE METRO

CITY           SKY/WX    TMP DP  RH WIND       PRES   REMARKS
BWI AIRPORT    LGT RAIN  56  54  93 NE8       30.14F FOG
MD SCIENCE CTR   N/A     58  55  90 MISG      30.16R
MARTIN STATE   DRIZZLE   57  55  94 CALM      30.17S
ANNAPOLIS      LGT RAIN  58 N/A N/A NE8       30.14R
FORT MEADE*    CLOUDY    55  54  94 NE5       30.17F

$$

MDZ012-015-019>023-030600-
MARYLAND EASTERN SHORE

CITY           SKY/WX    TMP DP  RH WIND       PRES   REMARKS
OCEAN CITY     CLOUDY    59  57  93 NE13G23   30.09F
SALISBURY      CLOUDY    57  56  96 NE13      30.09F
BAY BRIDGE AP* HVY RAIN N/A N/A N/A NE5       30.14F
CAMBRIDGE*     CLOUDY    59  55  88 NE6       30.11F
EASTON*        CLOUDY    58  58 100 NE9       30.16F

$$

MDZ017>025-030600-
SOUTHERN MARYLAND

CITY           SKY/WX    TMP DP  RH WIND       PRES   REMARKS
PATUXENT RIVER CLOUDY    59  56  89 NE14      30.11S
ST INIGOES     CLOUDY    59  57  93 NE10      30.10S
LEONARDTOWN*   CLOUDY    57  55  94 NE5       30.13S

$$

MDZ003>005-030600-
NORTH CENTRAL MARYLAND

CITY           SKY/WX    TMP DP  RH WIND       PRES   REMARKS
FREDERICK*     CLOUDY    57  55  94 NE5       30.18S
HAGERSTOWN APT CLOUDY    59  55  87 NE5       30.15S
WESTMINSTER*   DRIZZLE   55  54  94 E3        30.16S

$$

MDZ501>502-030600-
WESTERN MARYLAND

CITY           SKY/WX    TMP DP  RH WIND       PRES   REMARKS
OAKLAND*       FOG       50 N/A N/A SE14G21   30.15S VSB 1/4
CUMBERLAND*    CLOUDY    61  54  77 CALM      30.19S

$$

VAZ025>031-030600-
SHENANDOAH VALLEY

CITY           SKY/WX    TMP DP  RH WIND       PRES   REMARKS
WINCHESTER*    CLOUDY    59  57  94 NE3       30.15S
FRONT ROYAL*   CLOUDY    55  55 100 N5        30.14S
LURAY*         CLOUDY    59  59 100 N12       30.14S
NEW MARKET*    CLOUDY    58  56  94 NE6       30.12S
STAUNTON*      CLOUDY    61  57  87 NE7       30.14S
WAYNESBORO*    CLOUDY    56  56  98 N7        30.13R

$$

WVZ021-048>050-054>055-030600-
EASTERN WEST VIRGINIA PANHANDLE

CITY           SKY/WX    TMP DP  RH WIND       PRES   REMARKS
MARTINSBURG    CLOUDY    59  56  89 NE5       30.16S
PETERSBURG*    CLOUDY    58  56  94 CALM      30.15S

$$

VAZ036>039-050-030600-
CENTRAL FOOTHILLS

CITY           SKY/WX    TMP DP  RH WIND       PRES   REMARKS
CHARLOTTESVILL CLOUDY    59  55  87 NE10      30.12S
CULPEPER*      CLOUDY    56  56  97 NE3       30.14F
ORANGE*        CLOUDY    59  57  94 CALM      30.14S
GORDONSVILLE*  CLOUDY    57  55  94 NE7       30.12S FOG
WARRENTON*     CLOUDY    58  58 100 NE5       30.14S FOG

$$

VAZ055>057-030600-
NORTH AND CENTRAL PIEDMONT

CITY           SKY/WX    TMP DP  RH WIND       PRES   REMARKS
FREDERICKSBRG* CLOUDY    60  60 100 NE3       30.12S
STAFFORD*      CLOUDY    57  56  95 N5        30.17S

$$

NCZ024-NYZ072-PAZ021-071-VAZ022-071-030600-
OTHER REGIONAL OBSERVATIONS

CITY           SKY/WX    TMP DP  RH WIND       PRES   REMARKS
NEW YORK CITY  CLOUDY    54  51  90 MISG      30.21S FOG
PHILADELPHIA   CLOUDY    56  52  86 E8        30.17S
PITTSBURGH     PTCLDY    56  53  90 NE8       30.13S
ROANOKE        LGT RAIN  62  60  93 NE7       30.09S
RICHMOND       DRIZZLE   61  59  93 N7        30.09S FOG
RALEIGH        CLOUDY    68  65  90 E5        30.02S

$$

ANZ530>537-030600-
MARINE OBSERVATIONS

STATION/POSITION TIME  TEMP    WIND        PRES
                       AIR SEA DIR/SP/G
                 (UTC) (F)     (DEG/KT/KT) (MB)
THOMAS PT LIGHT  0500   57 71   60/ 12/ 13 1021.0S
BALT KEY BRIDGE  0400   58      10/  9/ 11 1020.6R
COVE POINT       0400   58      60/ 11/ 15 1020.5R
LEWISETTA        0400   62 73              1018.7F
SOLOMONS ISLAND  0400      72                N/A
PINEY POINT      0400           60/ 10/ 12   N/A

$$




USA.gov is the U.S. government's official web portal to all federal, state and local government web resources and services.